• In Portugal
  • List of Countries
  • For 7 days
  • Water Temperature
  • Satellite Maps
  • Weather Map
  • Weather Widgets
  • user-avatar
    Login

    Hourly Weather Amar

    Today, 22 November, Wednesday

    Time Temperature Precipitation Wind Pressure Humidity
    00:00 +28°C° 0 mm 5 mps 756 mmHg 43%
    01:00 +28°C° 0 mm 5 mps 756 mmHg 43%
    02:00 +27°C° 0 mm 5 mps 755 mmHg 44%
    03:00 +27°C° 0 mm 6 mps 756 mmHg 45%
    04:00 +27°C° 0 mm 6 mps 756 mmHg 44%
    05:00 +27°C° 0 mm 6 mps 756 mmHg 44%
    06:00 +26°C° 0 mm 7 mps 756 mmHg 43%
    07:00 +27°C° 0 mm 7 mps 756 mmHg 40%
    08:00 +28°C° 0 mm 7 mps 756 mmHg 36%
    09:00 +29°C° 0 mm 8 mps 757 mmHg 29%
    10:00 +31°C° 0 mm 8 mps 756 mmHg 27%
    11:00 +32°C° 0 mm 7 mps 756 mmHg 25%
    12:00 +33°C° 0 mm 7 mps 756 mmHg 23%
    13:00 +33°C° 0 mm 6 mps 755 mmHg 23%
    14:00 +33°C° 0 mm 5 mps 755 mmHg 23%
    15:00 +33°C° 0 mm 4 mps 755 mmHg 24%
    16:00 +31°C° 0 mm 3 mps 755 mmHg 26%
    17:00 +30°C° 0 mm 2 mps 755 mmHg 28%
    18:00 +30°C° 0 mm 1 mps 755 mmHg 30%
    19:00 +29°C° 0 mm 2 mps 755 mmHg 31%
    20:00 +29°C° 0 mm 2 mps 755 mmHg 31%
    21:00 +29°C° 0 mm 3 mps 755 mmHg 32%
    22:00 +29°C° 0 mm 3 mps 755 mmHg 34%
    23:00 +29°C° 0 mm 4 mps 755 mmHg 36%

    Tomorrow, 23 November, Thursday

    Time Temperature Precipitation Wind Pressure Humidity
    00:00 +29°C° 0 mm 4 mps 755 mmHg 38%
    01:00 +28°C° 0 mm 4 mps 755 mmHg 41%
    02:00 +28°C° 0 mm 4 mps 755 mmHg 44%
    03:00 +28°C° 0 mm 5 mps 755 mmHg 47%
    04:00 +27°C° 0 mm 4 mps 755 mmHg 49%
    05:00 +27°C° 0 mm 4 mps 756 mmHg 51%
    06:00 +26°C° 0 mm 4 mps 756 mmHg 53%
    07:00 +27°C° 0.3 mm 5 mps 757 mmHg 55%
    08:00 +27°C° 0.3 mm 6 mps 757 mmHg 57%
    09:00 +27°C° 0.3 mm 7 mps 758 mmHg 59%
    10:00 +26°C° 0.5 mm 7 mps 757 mmHg 60%
    11:00 +26°C° 0.5 mm 7 mps 757 mmHg 61%
    12:00 +26°C° 0.5 mm 8 mps 757 mmHg 61%
    13:00 +26°C° 0.3 mm 7 mps 757 mmHg 61%
    14:00 +24°C° 0.3 mm 7 mps 757 mmHg 61%
    15:00 +24°C° 0.3 mm 7 mps 757 mmHg 61%
    16:00 +24°C° 0.2 mm 6 mps 758 mmHg 61%
    17:00 +25°C° 0.2 mm 5 mps 758 mmHg 61%
    18:00 +25°C° 0.2 mm 4 mps 758 mmHg 62%
    19:00 +25°C° 0.1 mm 4 mps 758 mmHg 61%
    20:00 +25°C° 0.1 mm 5 mps 758 mmHg 60%
    21:00 +25°C° 0.1 mm 5 mps 759 mmHg 59%
    22:00 +25°C° 0 mm 5 mps 759 mmHg 60%
    23:00 +25°C° 0 mm 5 mps 758 mmHg 60%

    Day after tomorrow, 24 November, Friday

    Time Temperature Precipitation Wind Pressure Humidity
    00:00 +24°C° 0 mm 6 mps 758 mmHg 61%
    01:00 +24°C° 0 mm 6 mps 758 mmHg 59%
    02:00 +24°C° 0 mm 6 mps 758 mmHg 58%
    03:00 +24°C° 0 mm 6 mps 759 mmHg 57%
    04:00 +24°C° 0 mm 7 mps 759 mmHg 55%
    05:00 +24°C° 0 mm 7 mps 759 mmHg 53%
    06:00 +24°C° 0 mm 7 mps 759 mmHg 52%
    07:00 +24°C° 0 mm 7 mps 760 mmHg 50%
    08:00 +26°C° 0 mm 7 mps 761 mmHg 47%
    09:00 +26°C° 0 mm 7 mps 761 mmHg 45%
    10:00 +26°C° 0 mm 7 mps 761 mmHg 44%
    11:00 +26°C° 0 mm 7 mps 761 mmHg 42%
    12:00 +27°C° 0 mm 6 mps 761 mmHg 40%
    13:00 +27°C° 0 mm 6 mps 761 mmHg 39%
    14:00 +27°C° 0 mm 6 mps 761 mmHg 37%
    15:00 +27°C° 0 mm 6 mps 761 mmHg 36%
    16:00 +26°C° 0 mm 6 mps 761 mmHg 37%
    17:00 +26°C° 0 mm 6 mps 761 mmHg 38%
    18:00 +24°C° 0 mm 6 mps 761 mmHg 39%
    19:00 +24°C° 0 mm 6 mps 762 mmHg 42%
    20:00 +24°C° 0 mm 6 mps 762 mmHg 45%
    21:00 +24°C° 0 mm 7 mps 762 mmHg 47%
    22:00 +23°C° 0 mm 7 mps 762 mmHg 49%
    23:00 +23°C° 0 mm 7 mps 762 mmHg 51%

    25 November, Saturday

    Time Temperature Precipitation Wind Pressure Humidity
    00:00 +23°C° 0 mm 7 mps 762 mmHg 53%
    01:00 +23°C° 0 mm 7 mps 762 mmHg 53%
    02:00 +23°C° 0 mm 7 mps 762 mmHg 53%
    03:00 +22°C° 0 mm 8 mps 762 mmHg 52%
    04:00 +22°C° 0 mm 8 mps 762 mmHg 51%
    05:00 +22°C° 0 mm 8 mps 763 mmHg 50%
    06:00 +22°C° 0 mm 8 mps 763 mmHg 49%
    07:00 +23°C° 0 mm 8 mps 764 mmHg 46%
    08:00 +24°C° 0 mm 8 mps 764 mmHg 43%
    09:00 +26°C° 0 mm 8 mps 764 mmHg 40%
    10:00 +26°C° 0 mm 7 mps 764 mmHg 39%
    11:00 +27°C° 0 mm 7 mps 763 mmHg 37%
    12:00 +27°C° 0 mm 7 mps 763 mmHg 36%
    13:00 +27°C° 0 mm 7 mps 763 mmHg 37%
    14:00 +27°C° 0 mm 8 mps 762 mmHg 38%
    15:00 +26°C° 0 mm 8 mps 762 mmHg 39%
    16:00 +26°C° 0 mm 8 mps 762 mmHg 42%
    17:00 +24°C° 0 mm 8 mps 762 mmHg 45%
    18:00 +23°C° 0 mm 8 mps 763 mmHg 48%
    19:00 +23°C° 0 mm 8 mps 763 mmHg 49%
    20:00 +23°C° 0 mm 7 mps 763 mmHg 50%
    21:00 +22°C° 0 mm 7 mps 764 mmHg 50%
    22:00 +22°C° 0 mm 7 mps 763 mmHg 50%
    23:00 +22°C° 0 mm 7 mps 763 mmHg 50%

    26 November, Sunday

    Time Temperature Precipitation Wind Pressure Humidity
    00:00 +22°C° 0 mm 7 mps 763 mmHg 50%
    01:00 +21°C° 0 mm 7 mps 763 mmHg 49%
    02:00 +21°C° 0 mm 7 mps 762 mmHg 49%
    03:00 +21°C° 0 mm 7 mps 762 mmHg 48%
    04:00 +21°C° 0 mm 7 mps 763 mmHg 48%
    05:00 +21°C° 0 mm 7 mps 763 mmHg 48%
    06:00 +21°C° 0 mm 7 mps 763 mmHg 48%
    07:00 +22°C° 0 mm 7 mps 763 mmHg 46%
    08:00 +23°C° 0 mm 7 mps 763 mmHg 45%
    09:00 +24°C° 0 mm 7 mps 764 mmHg 43%
    10:00 +24°C° 0 mm 6 mps 763 mmHg 41%
    11:00 +26°C° 0 mm 6 mps 763 mmHg 40%
    12:00 +27°C° 0 mm 6 mps 762 mmHg 39%
    13:00 +27°C° 0 mm 6 mps 762 mmHg 38%
    14:00 +27°C° 0 mm 6 mps 761 mmHg 38%
    15:00 +27°C° 0 mm 5 mps 761 mmHg 38%
    16:00 +26°C° 0 mm 5 mps 761 mmHg 41%
    17:00 +26°C° 0 mm 5 mps 761 mmHg 43%
    18:00 +25°C° 0 mm 5 mps 762 mmHg 46%
    19:00 +25°C° 0 mm 4 mps 762 mmHg 47%
    20:00 +25°C° 0 mm 4 mps 762 mmHg 48%
    21:00 +23°C° 0 mm 4 mps 762 mmHg 49%
    22:00 +24°C° 0 mm 3 mps 762 mmHg 50%
    23:00 +24°C° 0 mm 3 mps 761 mmHg 51%

    27 November, Monday

    Time Temperature Precipitation Wind Pressure Humidity
    00:00 +24°C° 0 mm 3 mps 761 mmHg 52%
    01:00 +24°C° 0 mm 3 mps 761 mmHg 52%
    02:00 +24°C° 0 mm 3 mps 761 mmHg 53%
    03:00 +22°C° 0 mm 4 mps 760 mmHg 53%
    04:00 +22°C° 0 mm 3 mps 761 mmHg 54%
    05:00 +22°C° 0 mm 3 mps 761 mmHg 55%
    06:00 +22°C° 0 mm 3 mps 761 mmHg 56%
    07:00 +24°C° 0 mm 3 mps 761 mmHg 53%
    08:00 +25°C° 0 mm 2 mps 761 mmHg 50%
    09:00 +26°C° 0 mm 2 mps 761 mmHg 46%
    10:00 +27°C° 0 mm 2 mps 761 mmHg 44%
    11:00 +27°C° 0 mm 2 mps 760 mmHg 42%
    12:00 +28°C° 0 mm 2 mps 760 mmHg 39%
    13:00 +28°C° 0 mm 2 mps 759 mmHg 39%
    14:00 +28°C° 0 mm 3 mps 759 mmHg 38%
    15:00 +28°C° 0 mm 3 mps 758 mmHg 37%
    16:00 +28°C° 0 mm 3 mps 759 mmHg 41%
    17:00 +27°C° 0 mm 4 mps 759 mmHg 44%
    18:00 +27°C° 0 mm 4 mps 759 mmHg 47%
    19:00 +26°C° 0 mm 4 mps 759 mmHg 50%
    20:00 +26°C° 0 mm 4 mps 759 mmHg 52%
    21:00 +26°C° 0 mm 3 mps 759 mmHg 54%
    22:00 +26°C° 0 mm 3 mps 759 mmHg 55%
    23:00 +25°C° 0 mm 3 mps 759 mmHg 57%
    Show more